Flag for U.S.A. Weather past 2 weeks in El Paso, Texas, U.S.A.

Now
95 °F

Scattered clouds.


Feels Like: 93 °F
Forecast: 76 / 95 °F
Wind: 8 mph from Southwest

Location: El Paso International Airport

Current Time: Jul 6, 2015 at 4:30:48 PM

Latest Report: Jul 6, 2015 at 2:51 PM


Visibility: 10 mi

Pressure: 29.74 "Hg (26.20 "Hg at 1142m altitude)

Humidity: 25%

Dew point: 54 °F

Location of El PasoLocation

Historic Weather in El Paso — Graph

°F

El Paso temperature yesterday

Maximum temperature yesterday: 93 °F (at 4:51 PM)
Minimum temperature yesterday: 71 °F (at 5:51 AM)
Average temperature yesterday: 82 °F

Past Weeks' High & Low Weather Summary

 TemperatureHumidityPressure
High103 °F (Jun 22, 5:51 PM)84% (Jul 4, 9:51 PM)30.14 "Hg (Jul 4, 9:51 PM)
Low71 °F (Jun 23, 5:51 AM)11% (Jun 21, 2:51 PM)29.61 "Hg (Jul 2, 6:51 PM)
Average84 °F39%29.82 "Hg
* Reported Jun 21 2:51 PM — Jul 6 2:51 PM, El Paso, Weather by CustomWeather, © 2015

Note: Actual official high and low records may vary slightly from our data, if they occured in-between our weather recording intervals... More about our weather records

Advertising

El Paso weather history for previous 24 hours

 ConditionsComfort  
Time TempWeatherWind HumidityBarometerVisibility
2:51 PM
Mon, Jul 6
95 °FScattered clouds.8 mph25%29.74 "Hg10 mi
1:51 PM92 °FScattered clouds.6 mph29%29.78 "Hg10 mi
12:51 PM89 °FScattered clouds.8 mph34%29.81 "Hg10 mi
11:51 AM86 °FBroken clouds.9 mph39%29.84 "Hg10 mi
10:51 AM85 °FScattered clouds.8 mph40%29.85 "Hg10 mi
9:51 AM82 °FPartly sunny.13 mph44%29.84 "Hg10 mi
8:51 AM79 °FBroken clouds.14 mph52%29.84 "Hg10 mi
7:51 AM76 °FBroken clouds.14 mph58%29.83 "Hg10 mi
6:51 AM75 °FPassing clouds.7 mph60%29.82 "Hg10 mi
5:51 AM75 °FPassing clouds.17 mph60%29.80 "Hg10 mi
4:51 AM76 °FPassing clouds.10 mph56%29.79 "Hg10 mi
3:51 AM76 °FMostly cloudy.6 mph56%29.79 "Hg10 mi
2:51 AM79 °FMostly cloudy.8 mph48%29.79 "Hg10 mi
1:51 AM80 °FPartly cloudy.15 mph47%29.80 "Hg10 mi
12:51 AM83 °FPartly cloudy.13 mph43%29.80 "Hg10 mi
11:51 PM
Sun, Jul 5
83 °FPartly cloudy.13 mph43%29.80 "Hg10 mi
10:51 PM85 °FPartly cloudy.16 mph37%29.80 "Hg10 mi
9:51 PM86 °FPartly cloudy.15 mph37%29.77 "Hg10 mi
8:51 PM88 °FBroken clouds.17 mph35%29.75 "Hg10 mi
7:51 PM89 °FScattered clouds.17 mph32%29.74 "Hg10 mi
6:51 PM90 °FScattered clouds.18 mph33%29.72 "Hg10 mi
5:51 PM90 °FScattered clouds.14 mph34%29.72 "Hg10 mi
4:51 PM93 °FScattered clouds.10 mph30%29.72 "Hg10 mi
Weather by CustomWeather, © 2015

See weather overviewHow to use our weather pages